Location: Red Rock Canyon
(36.1333°N, 115.4333°W)
Time: 02:26:54
(UTC-07:00)

ISS - Visible Passes

Search period start: 23 August 2014 00:00
Search period end: 02 September 2014 00:00
Orbit: 413 x 419 km, 51.6° (Epoch: 23 August)

Date Brightness Start Highest point End Pass type
(mag) Time Alt. Az. Time Alt. Az. Time Alt. Az.
23 Aug -1.2 21:17:17 10° W 21:19:46 20° SW 21:19:46 20° SW visible
24 Aug -2.1 20:28:14 10° WNW 20:31:21 38° SW 20:33:22 18° SSE visible
26 Aug -0.4 20:29:13 10° WSW 20:30:33 12° SW 20:31:54 10° SSW visible
27 Aug -1.0 19:39:26 10° WNW 19:42:05 22° SW 19:44:44 10° S visible
